This is the latest recevied weather packets stored in our database for station/object KB1FFS. If no packets are shown the sender has not sent any weather packets the latest 10 day(s).
| Time | Temp. | Humidity | Pressure | Rain* | Wind** | Luminosity | Snow |
|---|---|---|---|---|---|---|---|
| 1788041552 | 40° C | 27% | 1015 hPa | 0 mm | - | 414 W/m² | - |
| 1788041246 | 40° C | 28% | 1014.9 hPa | 0 mm | - | 432 W/m² | - |
| 1788040945 | 40° C | 26% | 1014.9 hPa | 0 mm | - | 398 W/m² | - |
| 1788040644 | 40° C | 26% | 1015 hPa | 0 mm | - | 462 W/m² | - |
| 1788040339 | 40° C | 27% | 1014.9 hPa | 0 mm | - | 483 W/m² | - |
| 1788040039 | 40.56° C | 26% | 1015 hPa | 0 mm | - | 497 W/m² | - |
| 1788039735 | 40.56° C | 27% | 1015.1 hPa | 0 mm | - | 514 W/m² | - |
| 1788039435 | 40.56° C | 28% | 1015.1 hPa | 0 mm | - | 521 W/m² | - |
| 1788039130 | 40.56° C | 28% | 1015.2 hPa | 0 mm | - | 543 W/m² | - |
| 1788038826 | 40.56° C | 27% | 1015.3 hPa | 0 mm | - | 556 W/m² | - |
| 1788038521 | 40.56° C | 27% | 1015.5 hPa | 0 mm | - | 565 W/m² | - |
| 1788038219 | 40.56° C | 26% | 1015.5 hPa | 0 mm | - | 574 W/m² | - |
| 1788037915 | 40.56° C | 28% | 1015.4 hPa | 0 mm | - | 580 W/m² | - |
| 1788037609 | 40° C | 29% | 1015.7 hPa | 0 mm | - | 612 W/m² | - |
| 1788037305 | 40.56° C | 27% | 1015.7 hPa | 0 mm | - | 621 W/m² | - |
| 1788037004 | 40.56° C | 28% | 1015.8 hPa | 0 mm | - | 646 W/m² | - |
| 1788036700 | 40.56° C | 29% | 1015.6 hPa | 0 mm | - | 579 W/m² | - |
| 1788036397 | 40.56° C | 28% | 1015.8 hPa | 0 mm | - | 657 W/m² | - |
| 1788036096 | 40° C | 28% | 1015.9 hPa | 0 mm | - | 666 W/m² | - |
| 1788035796 | 40° C | 29% | 1016.1 hPa | 0 mm | - | 685 W/m² | - |
| 1788035492 | 40° C | 30% | 1016.1 hPa | 0 mm | - | 670 W/m² | - |
| 1788035186 | 40.56° C | 29% | 1016.1 hPa | 0 mm | - | 621 W/m² | - |
| 1788034883 | 40.56° C | 31% | 1016.2 hPa | 0 mm | - | 712 W/m² | - |
| 1788034578 | 40° C | 30% | 1016 hPa | 0 mm | - | 715 W/m² | - |
| 1788034274 | 40.56° C | 30% | 1016.2 hPa | 0 mm | - | 712 W/m² | - |
* Rain latest hour (hover to see other rain measurements)
** Current wind speed in m/s (hover to see current wind gust speed)